Home   Weather   Warminster Township   Past weeks

Flag for USA Past Weather in Warminster Township, Pennsylvania, USA — Yesterday and Last 2 Weeks

54 °F

Passing clouds.

Feels Like: 52 °F
Forecast: 46 / 60 °F
Wind: 7 mph from Southwest

Location: Doylestown Airport

Current Time: Oct 24, 2016 at 3:07:48 AM

Latest Report: Oct 24, 2016 at 1:54 AM

Visibility: 10 mi

Pressure: 29.80 "Hg

Humidity: 72%

Dew Point: 45 °F

Location of Warminster TownshipLocation

Past Weather in Warminster Township — Graph


Warminster Township Temperature Yesterday

Maximum temperature yesterday: 66 °F (at 2:54 PM)
Minimum temperature yesterday: 45 °F (at 2:54 AM)
Average temperature yesterday: 54 °F

High & Low Weather Summary for the Past Weeks

High86 °F (Oct 19, 2:54 PM)97% (Oct 13, 7:54 AM)30.48 "Hg (Oct 13, 7:54 AM)
Low37 °F (Oct 15, 7:54 AM)26% (Oct 10, 12:54 PM)29.44 "Hg (Oct 22, 2:54 AM)
Average59 °F72%30.06 "Hg
* Reported Oct 9 1:54 AM — Oct 24 1:54 AM, Warminster Township, Weather by CustomWeather, © 2016

Note: Actual official high and low records may vary slightly from our data, if they occured in-between our weather recording intervals... More about our weather records


Warminster Township Weather History for the Previous 24 Hours

Scroll right to see more
Time TempWeatherWind HumidityBarometerVisibility
1:54 AM
Mon, Oct 24
54 °FPassing clouds.7 mph72%29.80 "Hg10 mi
12:54 AM53 °FPassing clouds.5 mph74%29.83 "Hg10 mi
11:54 PM
Sun, Oct 23
49 °FClear.5 mph80%29.86 "Hg10 mi
10:54 PM52 °FClear.3 mph69%29.89 "Hg10 mi
9:54 PM51 °FClear.3 mph71%29.90 "Hg10 mi
8:54 PM52 °FClear.3 mph66%29.91 "Hg10 mi
7:54 PM56 °FClear.5 mph58%29.92 "Hg10 mi
6:54 PM58 °FClear.5 mph51%29.91 "Hg10 mi
5:54 PM62 °FSunny.9 mph43%29.90 "Hg10 mi
4:54 PM64 °FPassing clouds.9 mph40%29.88 "Hg10 mi
3:54 PM65 °FPartly sunny.10 mph37%29.88 "Hg10 mi
2:54 PM66 °FPartly sunny.13 mph36%29.87 "Hg10 mi
1:54 PM61 °FPartly sunny.14 mph42%29.88 "Hg10 mi
12:54 PM61 °FPartly sunny.22 mph44%29.88 "Hg10 mi
11:54 AM59 °FBroken clouds.18 mph48%29.89 "Hg10 mi
10:54 AM58 °FSunny.17 mph51%29.89 "Hg10 mi
9:54 AM55 °FSunny.12 mph55%29.88 "Hg10 mi
8:54 AM50 °FSunny.16 mph59%29.87 "Hg10 mi
7:54 AM48 °FSunny.9 mph59%29.85 "Hg10 mi
6:54 AM47 °FClear.12 mph59%29.83 "Hg10 mi
5:54 AM46 °FClear.8 mph61%29.82 "Hg10 mi
4:54 AM46 °FClear.9 mph63%29.81 "Hg10 mi
3:54 AM46 °FClear.13 mph66%29.80 "Hg10 mi
Weather by CustomWeather, © 2016

See weather overviewHow to use our weather pages